Location: Blienschwiller
(48.3416°N, 7.4182°E)
Time: 10:34:48
(UTC+00:00)

Cosmos 2369 Rocket - Pass Details

Date: 18 February 2020
Orbit: 827 x 854 km, 71.0° (Epoch: 08 April)

Event Time Altitude Azimuth Distance (km) Brightness Sun altitude
Exits shadow 04:35:15 - 330° (NNW) 2,763 4.6 -20.3°
Reaches altitude 10° 04:35:58 10° 330° (NNW) 2,493 4.4 -20.1°
Maximum altitude 04:41:42 79° 245° (WSW) 874 2.1 -19.2°
Drops below altitude 10° 04:47:24 10° 159° (SSE) 2,477 4.8 -18.2°
Sets 04:49:50 0° 159° (SSE) 3,408 5.6 -17.8°
